FW4781 Weather Reports


time (UTC)temp
C
wind
direction
speed
KPH
gust
KPH
rain 1hr
cm
rain 24hr
cm
rain mn
cm
humidity
%
barometer
mb
20260503224104 24 101 8.0 16.1 0.00 0.00 0.00 43 1009.7
20260503222104 24 319 4.8 20.9 0.00 0.00 0.00 40 1009.9
20260503221104 24 90 4.8 16.1 0.00 0.00 0.00 43 1010.1
20260503220104 24 296 3.2 19.3 0.00 0.00 0.00 45 1010.2
20260503215104 23 66 9.7 20.9 0.00 0.00 0.00 42 1010.2
20260503213103 23 48 8.0 27.4 0.00 0.00 0.00 42 1010.5
20260503212104 23 69 3.2 20.9 0.00 0.00 0.00 44 1010.5
20260503211104 23 60 3.2 16.1 0.00 0.00 0.00 44 1010.6
20260503210104 23 46 1.6 20.9 0.00 0.00 0.00 47 1010.7
20260503205103 23 24 11.3 20.9 0.00 0.00 0.00 47 1010.7
20260503204105 22 337 14.5 24.1 0.00 0.00 0.00 50 1010.9
20260503203104 22 76 9.7 19.3 0.00 0.00 0.00 52 1011.0
20260503202104 22 75 11.3 19.3 0.00 0.00 0.00 51 1011.0
20260503201103 22 66 9.7 20.9 0.00 0.00 0.00 54 1011.2
20260503200104 22 59 9.7 19.3 0.00 0.00 0.00 53 1011.5
20260503195104 22 69 9.7 19.3 0.00 0.00 0.00 54 1011.5
20260503194104 21 48 4.8 16.1 0.00 0.00 0.00 56 1011.7
20260503193104 21 74 6.4 19.3 0.00 0.00 0.00 55 1011.8
20260503192104 21 63 4.8 20.9 0.00 0.00 0.00 58 1011.8
20260503191107 21 74 9.7 22.5 0.00 0.00 0.00 56 1012.0
20260503190104 21 63 8.0 19.3 0.00 0.00 0.00 55 1012.1
20260503185104 21 86 6.4 19.3 0.00 0.00 0.00 56 1012.1
20260503184104 21 134 8.0 20.9 0.00 0.00 0.00 54 1012.2
20260503183104 21 56 9.7 20.9 0.00 0.00 0.00 57 1012.2
20260503182104 21 21 9.7 24.1 0.00 0.00 0.00 59 1012.2
20260503181104 21 63 11.3 16.1 0.00 0.00 0.00 58 1012.3
20260503174103 20 58 14.5 22.5 0.00 0.00 0.00 59 1012.6
20260503173104 20 20 8.0 20.9 0.00 0.00 0.00 59 1012.7
20260503172104 20 88 8.0 20.9 0.00 0.00 0.00 62 1012.7
20260503170105 20 64 9.7 27.4 0.00 0.00 0.00 62 1012.7
20260503150103 17 78 3.2 9.7 0.00 0.00 0.00 70 1012.8
20260503140104 15 111 1.6 4.8 0.00 0.00 0.00 72 1012.4
20260503131104 13 227 0.0 4.8 0.00 0.00 0.00 76 1012.2
20260503130104 13 227 0.0 3.2 0.00 0.00 0.00 77 1012.2
20260503110103 11 229 0.0 0.0 0.00 0.00 0.00 87 1012.7
20260503100104 11 229 0.0 0.0 0.00 0.00 0.00 85 1013.0
20260503090104 11 229 0.0 0.0 0.00 0.00 0.00 85 1012.9
20260503080106 12 229 0.0 0.0 0.00 0.00 0.00 82 1012.7
20260503072104 15 227 0.0 4.8 0.00 0.00 0.00 67 1012.6
20260503071104 15 225 0.0 4.8 0.00 0.00 0.00 69 1012.5
20260503070104 14 208 0.0 3.2 0.00 0.00 0.00 73 1012.4
20260503060103 14 208 0.0 0.0 0.00 0.00 0.00 73 1012.5
20260503055104 15 208 0.0 0.0 0.00 0.00 0.00 70 1012.5
20260503054104 15 208 0.0 0.0 0.00 0.00 0.00 68 1012.4
20260503053104 15 208 0.0 1.6 0.00 0.00 0.00 68 1012.4
20260503052104 16 208 0.0 3.2 0.00 0.00 0.00 68 1012.4
20260503051103 15 208 0.0 4.8 0.00 0.00 0.00 69 1012.3
20260503045104 15 207 0.0 0.0 0.00 0.00 0.00 68 1012.2
20260503043104 16 207 0.0 0.0 0.00 0.00 0.00 68 1012.0
20260503042104 16 207 0.0 0.0 0.00 0.00 0.00 67 1012.0
20260503041104 16 207 0.0 0.0 0.00 0.00 0.00 64 1011.7
20260503040105 17 207 0.0 0.0 0.00 0.00 0.00 64 1011.7
20260503035103 17 207 0.0 0.0 0.00 0.00 0.00 63 1011.7
20260503033103 17 207 0.0 1.6 0.00 0.00 0.00 60 1011.3
20260503032103 18 213 0.0 0.0 0.00 0.00 0.00 60 1011.3
20260503031106 18 213 0.0 4.8 0.00 0.00 0.00 57 1011.2
20260503030103 19 220 0.0 4.8 0.00 0.00 0.00 55 1011.2
20260503025105 19 68 0.0 4.8 0.00 0.00 0.00 55 1011.2
20260503024104 20 88 0.0 3.2 0.00 0.00 0.00 54 1011.2
20260503022104 20 38 1.6 11.3 0.00 0.00 0.00 53 1011.2
20260503020104 20 81 3.2 11.3 0.00 0.00 0.00 52 1011.3
20260503015104 20 62 3.2 14.5 0.00 0.00 0.00 52 1011.3
20260503014103 21 51 3.2 14.5 0.00 0.00 0.00 50 1011.3
20260503013105 21 80 4.8 19.3 0.00 0.00 0.00 50 1011.4
20260503011104 21 78 3.2 16.1 0.00 0.00 0.00 51 1011.3
20260503005104 21 60 3.2 14.5 0.00 0.00 0.00 51 1011.5
20260503004104 21 73 4.8 16.1 0.00 0.00 0.00 50 1011.6
20260503003103 22 95 4.8 20.9 0.00 0.00 0.00 50 1011.6
20260503002104 22 42 8.0 22.5 0.00 0.00 0.00 50 1011.6
20260502235103 21 72 9.7 19.3 0.00 0.00 0.00 52 1011.7
20260502234104 21 65 4.8 20.9 0.00 0.00 0.00 52 1011.9
20260502232103 21 63 6.4 20.9 0.00 0.00 0.00 54 1012.2
20260502231104 21 23 4.8 19.3 0.00 0.00 0.00 55 1012.4
20260502230104 21 95 4.8 20.9 0.00 0.00 0.00 55 1012.8